Погода в Корякине

Россия / Архангельская область     62°06′09″N   38°52′46″E
темп.,
°C
ветер,
м/с
пор.,
м/с
влажн.,
%
обл.,
%
осадки,
мм/ч
давл.,
гПа
погр.,
м
12 апреля, пн
пн1200:00+1юз3128440 0.0 1031344
03:00−1юз28915 0.0 1033170
06:00−2ю259045 0.0 103487
09:00+5ю366172 0.0 1034343
12:00+6ю41070100 0.0 1033733
15:00+9ю5107948 0.0 1030636
18:00+9ю5138799 0.0 1029682
21:00+8ю5159020 0.0 1029531
13 апреля, вт
вт1300:00+7ю4158997 0.0 1028522
03:00+5ю41292100 0.0 1027396
06:00+5ю41195100 0.4 1024464
09:00+6ю41293100 0.8 1023566
12:00+7ююз41295100 1.5 1022595
15:00+7ююз31096100 3.1 1022540
18:00+8ююз399595 0.1 1021507
21:00+7ююз2794100 0.1 1021207
14 апреля, ср
ср1400:00+5ююз259721 0.0 102086
03:00+5ююз269975 0.0 1020162
06:00+5юз3697100 0.0 1019308
09:00+6зюз2695100 0.0 1019399
12:00+5зюз2689100 1.4 1019432
15:00+4з3886100 4.3 1019691
18:00+5зюз3675100 0.4 1019697
21:00+3зюз2685100 0.4 1021198
15 апреля, чт
чт1500:00+3з2689100 0.0 1021179
03:00+2сз2588100 0.0 1022135
06:00+1ссз2685100 0.0 1023185
09:00+3ссв2372100 0.0 1024522
12:00+5с2357100 0.0 10251298
15:00+7с3448100 0.0 10241603
18:00+6ссв245277 0.0 1025246
21:00+2ссв27735 0.0 1026142
16 апреля, пт
пт1600:00+1ссв387662 0.0 1028260
03:00−1ссв28775 0.0 1030240
06:00−1с29682 0.0 1032427
09:00+2с47505 0.0 10331279
12:00+4с46394 0.0 10341537
15:00+5с464134 0.0 10341870
18:00+4с474846 0.0 10341525
21:000с27725 0.0 1036187